Virgil East

*Note: All times are displayed in the local standard time of the station location.
**Rain - Equipment is designed to accurately record liquid precipitation; under conditions when precipitation is not in liquid form, the data displayed may not properly reflect rainfall values.

Date Max Temp
(°C)
Min Temp
(°C)
Avg Temp
(°C)
Rain (mm) Avg RH (%)
Fri, Feb 15, 2019 5.5 -4.0 1.6 1.8 90.6
Thu, Feb 14, 2019 5.7 -4.3 -0.2 0.0 87.5
Wed, Feb 13, 2019 1.4 -4.3 -2.3 0.2 95.8
Tue, Feb 12, 2019 2.5 -5.2 -2.2 9.2 96.9
Mon, Feb 11, 2019 -2.1 -4.9 -3.4 0.0 92.5
Sun, Feb 10, 2019 -3.2 -8.5 -5.5 0.0 88.9
Sat, Feb 09, 2019 -4.0 -9.3 -6.6 0.0 83.0
DateTime Avg Temp (°C) Rain (mm) RH (%)
Sat, Feb 16, 2019 16:00 -2.3 0.0 83.5
Sat, Feb 16, 2019 15:00 -2.9 0.0 85.7
Sat, Feb 16, 2019 14:00 -3.0 0.0 87.0
Sat, Feb 16, 2019 13:00 -3.5 0.0 87.7
Sat, Feb 16, 2019 12:00 -3.6 0.0 86.9
Sat, Feb 16, 2019 11:00 -3.5 0.0 87.6
Sat, Feb 16, 2019 10:00 -3.4 0.0 84.6
Sat, Feb 16, 2019 09:00 -3.7 0.0 85.1
Sat, Feb 16, 2019 08:00 -4.0 0.0 87.5
Sat, Feb 16, 2019 07:00 -3.9 0.0 85.4
Sat, Feb 16, 2019 06:00 -3.0 0.0 85.4
Sat, Feb 16, 2019 05:00 -3.0 0.0 95.4
Sat, Feb 16, 2019 04:00 -3.4 0.0 98.6
Sat, Feb 16, 2019 03:00 -3.4 0.0 97.5
Sat, Feb 16, 2019 02:00 -3.4 0.0 93.7
Sat, Feb 16, 2019 01:00 -3.6 0.0 92.4
Sat, Feb 16, 2019 00:00 -3.8 0.0 91.1
Fri, Feb 15, 2019 23:00 -3.8 0.0 89.8
Fri, Feb 15, 2019 22:00 -3.4 0.0 89.0
Fri, Feb 15, 2019 21:00 -2.8 0.0 86.5
Fri, Feb 15, 2019 20:00 -2.1 0.0 88.2
Fri, Feb 15, 2019 19:00 -1.5 0.0 88.1
Fri, Feb 15, 2019 18:00 -1.0 0.0 85.9
Fri, Feb 15, 2019 17:00 -0.3 0.0 86.3
Fri, Feb 15, 2019 16:00 0.3 0.0 88.9
Fri, Feb 15, 2019 15:00 0.9 0.0 87.4
Fri, Feb 15, 2019 14:00 2.0 0.0 85.7
Fri, Feb 15, 2019 13:00 2.4 0.0 84.1
Fri, Feb 15, 2019 12:00 3.0 0.0 90.2
Fri, Feb 15, 2019 11:00 3.8 0.0 96.2
Fri, Feb 15, 2019 10:00 4.4 0.0 99.8
Fri, Feb 15, 2019 09:00 4.3 0.0 99.9
Fri, Feb 15, 2019 08:00 4.4 0.2 99.9
Fri, Feb 15, 2019 07:00 4.1 0.0 99.9
Fri, Feb 15, 2019 06:00 4.2 1.0 99.9
Fri, Feb 15, 2019 05:00 4.2 0.6 99.9
Fri, Feb 15, 2019 04:00 5.1 0.0 91.8
Fri, Feb 15, 2019 03:00 4.7 0.0 85.2
Fri, Feb 15, 2019 02:00 4.3 0.0 78.8
Fri, Feb 15, 2019 01:00 4.2 0.0 81.9
Fri, Feb 15, 2019 00:00 5.3 0.0 78.7
Thu, Feb 14, 2019 23:00 4.6 0.0 74.4
Thu, Feb 14, 2019 22:00 2.7 0.0 83.7
Thu, Feb 14, 2019 21:00 0.9 0.0 94.1
Thu, Feb 14, 2019 20:00 0.8 0.0 91.9
Thu, Feb 14, 2019 19:00 1.1 0.0 86.4
Thu, Feb 14, 2019 18:00 1.8 0.0 80.6
Thu, Feb 14, 2019 17:00 2.4 0.0 75.8


asterix Register now to access more data! asterix